Location: Limerick
(52.6800°N, 8.6400°W)
Time: 23:52:29
(UTC+01:00)

Daily predictions for brighter satellites

Satellite Brightness Start Highest point End
(mag) Time Altitude Azimuth Time Altitude Azimuth Time Altitude Azimuth
NOAA 11 4.3 21:19:08 10° SSE 21:24:38 74° ENE 21:30:09 10° NNW
Cosmos 1939 Rocket 3.2 21:21:34 10° S 21:25:23 66° WSW 21:29:18 10° NNW
Lacrosse 5 2.2 21:27:13 10° WNW 21:32:16 63° NNE 21:37:20 10° E
USA 81 4.5 21:28:53 10° N 21:33:59 46° ENE 21:39:03 10° SSE
CZ-4C R/B 3.8 21:32:31 10° SE 21:34:25 12° ESE 21:36:25 10° E
CZ-3B R/B 4.1 21:35:29 10° WSW 21:36:22 13° SW 21:37:15 10° S
Cosmos 1371 Rocket 4.3 21:32:54 10° S 21:38:02 50° ESE 21:43:14 10° NNE
NOSS 2-1 (C) 4.1 21:35:38 10° WSW 21:39:22 59° NW 21:43:55 10° NE
NOSS 2-1 (D) 4.2 21:36:39 10° WSW 21:40:22 57° NW 21:44:55 10° NE
Cosmos 676 Rocket 4.1 21:35:19 10° NNW 21:40:34 65° ENE 21:45:45 10° SE
Cosmos 1515 Rocket 3.6 21:36:09 10° S 21:40:38 88° ESE 21:45:07 10° NNE
CZ-4B DEB 4.5 21:37:36 10° SSE 21:41:05 71° ENE 21:44:36 10° N
SPOT 5 4.0 21:38:04 10° ESE 21:41:44 25° ENE 21:45:17 10° N
Cosmos 1825 2.6 21:39:29 10° NNW 21:43:09 61° W 21:46:47 10° S
ATLAS 2AS CENTAUR R/B 4.4 21:38:41 10° NW 21:45:30 32° WSW 21:51:52 10° S
H-2A R/B 2.4 21:41:47 10° SE 21:46:33 47° ENE 21:51:17 10° N
USA 186 3.9 21:45:48 10° SW 21:47:31 18° W 21:49:18 10° NW
Cosmos 1943 Rocket 3.5 21:44:06 10° NNW 21:48:52 28° NE 21:53:38 10° E
MetOp-B 4.4 21:44:21 10° SE 21:49:35 57° ENE 21:54:51 10° N
ARGOS 3.2 21:47:42 10° SSE 21:53:00 67° ENE 21:58:20 10° N
Meteor 2-10 Rocket 3.9 21:47:55 10° S 21:53:36 59° E 21:59:20 10° NNE
Cosmos 405 Rocket 3.5 21:50:49 10° SSE 21:54:19 33° E 21:57:55 10° NNE
Cosmos 2056 Rocket 3.6 21:53:51 10° S 21:59:09 59° ESE 22:04:27 10° NNE
Cosmos 1437 Rocket 3.9 21:56:13 10° N 21:59:37 28° ENE 22:02:14 15° ESE
Cosmos 1452 Rocket 4.5 21:55:40 10° SSE 22:00:01 27° E 22:04:24 10° NE
Cosmos 2228 Rocket 3.6 21:55:52 10° SSW 22:00:13 62° WNW 22:04:38 10° N
SL-16 R/B 2.5 21:56:43 10° S 22:02:04 45° ESE 22:07:27 10° NE
NOSS 0 Rocket 4.1 21:56:03 10° SW 22:02:16 82° WNW 22:08:33 10° NNE
Cosmos 1140 Rocket 3.5 21:58:21 10° NNW 22:03:36 81° ENE 22:08:18 13° SSE
Cosmos 1862 3.3 22:01:43 10° N 22:05:48 83° E 22:09:48 10° SSE
Cosmos 1727 Rocket 4.1 22:05:29 10° NNW 22:11:41 78° W 22:17:50 10° S
Cosmos 1850 Rocket 4.4 22:06:38 10° NNW 22:11:43 51° ENE 22:15:38 17° SE
USA 245 2.6 22:12:17 24° ESE 22:13:15 38° ENE 22:15:22 10° N
Helios 1B rocket 3.9 22:11:25 10° NE 22:14:30 20° E 22:15:52 17° ESE
RESURS DK-1 3.4 22:11:39 10° NNW 22:15:31 35° NE 22:18:21 16° ESE
Cosmos 1624 Rocket 3.9 22:10:20 10° SSW 22:15:32 80° ESE 22:20:46 10° NNE
NOSS 3-4 (A) 4.5 22:10:10 10° NW 22:16:48 49° SW 22:23:52 10° SSE
NOSS 3-4 (C) 4.5 22:10:16 10° NW 22:16:55 50° SW 22:23:57 10° SSE
Cosmos 2098 Rocket 2.8 22:13:56 10° SSW 22:18:00 74° W 22:21:19 10° N
Cosmos 1821 Rocket 4.5 22:12:35 11° SSE 22:18:17 43° E 22:24:09 10° NNE
Cosmos 1741 Rocket 4.3 22:15:59 10° NNW 22:21:16 58° ENE 22:25:05 19° SE
Cosmos 1954 Rocket 4.1 22:17:25 10° NNW 22:22:39 74° WSW 22:27:06 14° SSE
Cosmos 1980 4.3 22:21:30 10° SW 22:27:08 60° NW 22:32:47 10° NNE
Resurs 01 Rocket 3.9 22:24:25 10° SW 22:27:55 22° W 22:31:25 10° NW
Landsat 7 4.3 22:25:03 19° SE 22:28:10 46° ENE 22:32:44 10° N
Cosmos 2123 Rocket 4.4 22:24:11 10° N 22:30:21 51° ENE 22:34:42 19° SE
MetOp-A 4.5 22:25:34 10° S 22:30:53 66° WSW 22:36:15 10° NNW
Cosmos 2369 Rocket 2.5 22:25:37 10° NNW 22:31:16 59° NE 22:35:09 20° SE
Cosmos 921 Rocket 4.3 22:31:43 20° ESE 22:32:32 21° E 22:35:49 10° NE
CZ-2C R/B 4.4 22:35:13 10° NE 22:38:00 14° E 22:39:05 13° E
SL-8 R/B 3.9 22:33:36 10° WSW 22:38:12 47° S 22:41:28 18° ESE
Cosmos 2333 Rocket 3.9 22:39:41 10° WSW 22:44:53 36° NW 22:50:05 10° NNE
Terra 2.3 22:43:28 24° SE 22:46:02 47° ENE 22:50:36 10° N
Cosmos 2219 Rocket 4.2 22:42:51 10° WSW 22:47:51 31° NW 22:52:52 10° NNE
Helios 1A 3.1 22:47:19 21° S 22:50:02 75° WSW 22:54:14 10° NNW
ATLAS 5 CENTAUR R/B 2.3 22:44:26 10° NW 22:50:09 85° NE 22:54:12 24° SE
Meteor 1-14 Rocket 4.2 22:45:24 10° N 22:50:57 68° ENE 22:54:17 24° SSE
Cosmos 1461 3.7 22:46:35 10° NW 22:51:18 52° NE 22:54:06 23° ESE
Cosmos 2237 Rocket 3.4 22:48:27 10° WSW 22:53:50 45° NW 22:59:16 10° NNE
Cosmos 1606 3.8 22:53:21 26° ESE 22:53:52 27° E 22:57:12 10° NNE
ERS-1 Rocket 3.4 22:49:54 15° S 22:54:00 57° WSW 22:58:59 10° NNW
Intercosmos 24 4.4 22:49:33 16° S 22:54:04 63° E 22:58:12 10° NNE
Cosmos 1707 Rocket 3.6 22:50:50 10° SSW 22:55:08 75° WNW 22:59:30 10° N
SL-24 R/B 4.5 22:52:40 23° SSE 22:55:59 72° E 23:00:55 10° N
Cosmos 1441 Rocket 4.0 22:53:10 10° SSW 22:56:50 50° WNW 23:00:32 10° N
Cosmos 1420 Rocket 4.0 22:54:48 11° S 22:59:51 65° ESE 23:05:08 10° NNE
Cosmos 1933 3.4 22:58:18 16° SSW 23:01:30 77° WNW 23:05:37 10° N
USA 234 3.4 22:56:31 14° E 23:02:21 75° NNE 23:08:54 10° WNW
ATLAS CENTAUR R/B 3.5 22:59:11 10° W 23:02:30 27° NNW 23:06:01 10° NNE
GEOS 3 Rocket 4.2 22:57:40 10° NE 23:02:36 36° ESE 23:04:56 25° SSE
Cosmos 2344 3.7 22:56:30 10° SSW 23:03:55 60° SE 23:12:31 10° NE
Meteor 1-25 Rocket 4.2 23:00:07 10° NNW 23:05:54 83° ENE 23:09:10 27° SSE
SL-19 R/B 4.3 23:03:20 24° SSE 23:06:51 80° WSW 23:12:35 10° NNW
Cosmos 1733 Rocket 3.1 23:02:35 10° NNW 23:07:00 77° W 23:09:13 29° S
Cosmos 1605 Rocket 4.3 23:05:22 26° SSE 23:08:48 51° E 23:14:59 10° NNE
IGS 5A 3.4 23:07:09 35° SSE 23:08:49 76° ENE 23:13:01 10° NNW
Lacrosse 4 Rocket 4.3 23:08:19 10° NNW 23:10:08 12° NNE 23:11:57 10° NE
Meteor 1-29 3.2 23:06:53 10° NNE 23:10:12 47° E 23:10:28 46° ESE
Cosmos 1633 2.4 23:07:20 10° N 23:10:56 89° WSW 23:11:58 45° S
CARTOSAT-1 3.5 23:10:36 35° SSE 23:12:23 82° ENE 23:16:45 10° NNW
CZ-2C R/B 3.2 23:11:22 31° SE 23:13:21 53° ENE 23:18:08 10° N
Cosmos 1782 3.5 23:13:01 34° ESE 23:13:25 35° E 23:17:03 10° NNE
BREEZE M DEB (TANK) 3.7 23:01:04 10° WSW 23:15:11 69° S 23:18:02 23° ESE
Lacrosse 5 2.1 23:10:19 10° WNW 23:15:17 55° SW 23:17:13 34° SSE
DMSP B5D2-2 4.0 23:11:40 10° NNE 23:16:58 84° ESE 23:20:43 20° SSW
Meteor 1-26 Rocket 4.1 23:14:18 22° S 23:17:59 79° E 23:23:37 10° NNE
SPOT 1/Viking Rocket 3.9 23:14:53 23° S 23:18:08 60° WSW 23:23:20 10° NNW
Meteor 1-4 Rocket 2.5 23:14:57 10° NNW 23:18:26 74° W 23:19:17 48° S
SPOT 5 3.3 23:17:04 23° SSW 23:19:37 50° W 23:23:54 10° NNW
CZ-4C R/B 2.2 23:16:12 10° SSW 23:21:25 59° SE 23:27:31 10° NE
Meteor 1-20 Rocket 4.2 23:19:25 10° NNW 23:24:54 78° W 23:27:43 30° S
Sich 1 Rocket 3.9 23:20:54 10° N 23:25:28 58° ENE 23:26:50 40° SE
H-2A R/B 3.5 23:22:04 11° SSW 23:26:12 30° W 23:30:31 10° NNW
YAOGAN 11 4.0 23:25:02 41° SSE 23:26:31 89° W 23:30:52 10° NNW
Cosmos 1602 4.2 23:23:41 10° N 23:27:33 48° ENE 23:28:12 43° ESE
Cosmos 1271 Rocket 4.0 23:24:27 10° N 23:27:54 28° ENE 23:28:33 26° E
Cosmos 389 Rocket 2.5 23:25:47 10° N 23:29:13 58° ENE 23:29:28 56° E
Okean 1-7 4.0 23:30:34 30° E 23:30:45 30° E 23:34:29 10° NNE
Cosmos 1782 Rocket 3.9 23:27:30 10° N 23:31:55 54° ENE 23:33:02 42° ESE
Cosmos 1934 Rocket 3.9 23:27:44 21° SSW 23:32:01 85° W 23:38:08 10° N
Cosmos 1943 Rocket 2.1 23:27:39 10° NNW 23:33:11 76° WSW 23:35:29 37° SSE
Iridium 37 4.4 23:35:18 58° NE 23:35:18 58° NE 23:37:43 10° N
Cosmos 1656 Rocket 4.0 23:29:44 10° NNW 23:35:24 58° NE 23:37:54 32° ESE
Cosmos 1437 Rocket 4.2 23:32:27 10° NNW 23:35:55 31° W 23:37:40 21° SW
Okean 2 Rocket 3.8 23:32:32 10° N 23:36:43 38° ENE 23:37:36 34° E
Cosmos 1452 Rocket 4.1 23:36:40 10° SW 23:41:49 57° WNW 23:47:02 10° NNE
SeaSat 1 4.0 23:39:55 16° E 23:42:54 28° NE 23:47:05 10° NNW
Gblst 52 Del rocket 4.3 23:39:27 10° SW 23:44:39 45° SSE 23:50:00 10° E
SL-16 R/B 3.4 23:40:55 10° WSW 23:46:17 43° NW 23:51:41 10° NNE
Helios 1B rocket 3.1 23:46:03 10° N 23:50:06 53° WNW 23:52:13 26° SW
Cosmos 2242 Rocket 4.2 23:47:47 25° SW 23:50:06 53° WNW 23:54:28 10° N
RESURS DK-1 3.3 23:49:45 10° NW 23:53:35 36° WSW 23:54:16 34° SW
